| time (UTC) | temp F | wind direction | speed knots | gust knots | rain 1hr in | rain 24hr in | rain mn in | humidity % | barometer mb |
| 20260506022703 | 54 | 312 | 5.2 | 9.6 | 0.00 | 0.00 | 0.00 | 82 | 1015.7 |
| 20260506021824 | 54 | 317 | 5.2 | 7.8 | 0.00 | 0.00 | 0.00 | 82 | 1015.6 |
| 20260506020903 | 54 | 306 | 4.3 | 7.8 | 0.00 | 0.00 | 0.00 | 82 | 1015.4 |
| 20260506020003 | 54 | 307 | 5.2 | 8.7 | 0.00 | 0.00 | 0.00 | 81 | 1015.3 |
| 20260506015404 | 54 | 307 | 5.2 | 8.7 | 0.00 | 0.00 | 0.00 | 81 | 1015.2 |
| 20260506014504 | 54 | 308 | 6.1 | 9.6 | 0.00 | 0.00 | 0.00 | 81 | 1015.2 |
| 20260506013603 | 54 | 310 | 6.1 | 9.6 | 0.00 | 0.00 | 0.00 | 81 | 1015.1 |
| 20260506012703 | 54 | 305 | 5.2 | 9.6 | 0.00 | 0.00 | 0.00 | 81 | 1015.0 |
| 20260506011803 | 54 | 310 | 4.3 | 7.8 | 0.00 | 0.00 | 0.00 | 80 | 1014.8 |
| 20260506010903 | 55 | 313 | 2.6 | 5.2 | 0.00 | 0.00 | 0.00 | 80 | 1014.3 |
| 20260506010003 | 55 | 304 | 3.5 | 7.0 | 0.00 | 0.00 | 0.00 | 79 | 1014.3 |
| 20260506005406 | 55 | 297 | 3.5 | 7.0 | 0.00 | 0.00 | 0.00 | 80 | 1014.3 |
| 20260506004504 | 55 | 308 | 2.6 | 6.1 | 0.00 | 0.00 | 0.00 | 79 | 1014.2 |
| 20260506003604 | 55 | 332 | 0.9 | 3.5 | 0.00 | 0.00 | 0.00 | 79 | 1014.1 |
| 20260506002704 | 55 | 319 | 2.6 | 6.1 | 0.00 | 0.00 | 0.00 | 79 | 1014.3 |
| 20260506001804 | 55 | 303 | 3.5 | 6.1 | 0.00 | 0.00 | 0.00 | 79 | 1014.2 |
| 20260506000904 | 55 | 306 | 4.3 | 7.8 | 0.00 | 0.00 | 0.00 | 79 | 1014.3 |
| 20260506000001 | 54 | 297 | 3.5 | 7.0 | 0.00 | 0.00 | 0.00 | 80 | 1014.6 |
| 20260505235401 | 54 | 299 | 4.3 | 8.7 | 0.00 | 0.00 | 0.00 | 80 | 1014.2 |
| 20260505234501 | 55 | 303 | 5.2 | 7.8 | 0.00 | 0.00 | 0.00 | 81 | 1014.1 |
| 20260505233622 | 55 | 307 | 5.2 | 9.6 | 0.00 | 0.00 | 0.00 | 81 | 1013.9 |
| 20260505232701 | 55 | 313 | 4.3 | 7.8 | 0.00 | 0.00 | 0.00 | 81 | 1013.8 |
| 20260505231801 | 55 | 334 | 3.5 | 8.7 | 0.00 | 0.00 | 0.00 | 80 | 1013.9 |
| 20260505230902 | 56 | 323 | 3.5 | 8.7 | 0.00 | 0.00 | 0.00 | 79 | 1013.7 |
| 20260505230001 | 56 | 323 | 3.5 | 12.2 | 0.00 | 0.00 | 0.00 | 79 | 1013.8 |
| 20260505225422 | 56 | 320 | 4.3 | 13.9 | 0.00 | 0.00 | 0.00 | 79 | 1013.9 |
| 20260505224501 | 56 | 338 | 5.2 | 13.9 | 0.00 | 0.00 | 0.00 | 79 | 1013.8 |
| 20260505223602 | 56 | 326 | 5.2 | 15.6 | 0.00 | 0.00 | 0.00 | 79 | 1014.1 |
| 20260505222701 | 56 | 324 | 7.0 | 16.5 | 0.00 | 0.00 | 0.00 | 80 | 1014.0 |
| 20260505221802 | 56 | 349 | 5.2 | 13.0 | 0.00 | 0.00 | 0.00 | 80 | 1013.9 |
| 20260505220902 | 56 | 343 | 6.1 | 14.8 | 0.00 | 0.00 | 0.00 | 79 | 1014.0 |
| 20260505220022 | 55 | 347 | 7.8 | 20.9 | 0.00 | 0.00 | 0.00 | 79 | 1013.9 |
| 20260505215401 | 56 | 346 | 7.0 | 21.7 | 0.00 | 0.00 | 0.00 | 79 | 1013.7 |
| 20260505214501 | 55 | 310 | 10.4 | 21.7 | 0.00 | 0.00 | 0.00 | 80 | 1013.8 |
| 20260505213602 | 56 | 318 | 9.6 | 20.0 | 0.00 | 0.00 | 0.00 | 80 | 1014.0 |
| 20260505212702 | 56 | 327 | 10.4 | 20.0 | 0.00 | 0.00 | 0.00 | 80 | 1013.7 |
| 20260505211802 | 57 | 316 | 10.4 | 19.1 | 0.00 | 0.00 | 0.00 | 80 | 1013.7 |
| 20260505210902 | 57 | 316 | 7.8 | 15.6 | 0.00 | 0.00 | 0.00 | 79 | 1013.7 |
| 20260505210003 | 58 | 315 | 8.7 | 19.1 | 0.00 | 0.00 | 0.00 | 78 | 1013.3 |
| 20260505205423 | 58 | 314 | 9.6 | 18.2 | 0.00 | 0.00 | 0.00 | 77 | 1013.2 |
| 20260505204504 | 58 | 307 | 11.3 | 19.1 | 0.00 | 0.00 | 0.00 | 76 | 1013.0 |
| 20260505203602 | 60 | 305 | 11.3 | 22.6 | 0.00 | 0.00 | 0.00 | 70 | 1012.8 |
| 20260505202701 | 62 | 314 | 3.5 | 7.8 | 0.00 | 0.00 | 0.00 | 61 | 1012.3 |
| 20260505201802 | 63 | 319 | 1.7 | 5.2 | 0.00 | 0.00 | 0.00 | 61 | 1012.0 |
| 20260505200923 | 63 | 314 | 3.5 | 7.0 | 0.00 | 0.00 | 0.00 | 59 | 1012.0 |
| 20260505200002 | 63 | 315 | 3.5 | 6.1 | 0.00 | 0.00 | 0.00 | 58 | 1012.0 |
| 20260505195402 | 63 | 313 | 4.3 | 7.0 | 0.00 | 0.00 | 0.00 | 58 | 1012.0 |
| 20260505194502 | 64 | 314 | 3.5 | 7.0 | 0.00 | 0.00 | 0.00 | 57 | 1011.7 |
| 20260505193602 | 64 | 316 | 4.3 | 8.7 | 0.00 | 0.00 | 0.00 | 56 | 1011.6 |
| 20260505192702 | 65 | 304 | 6.1 | 12.2 | 0.00 | 0.00 | 0.00 | 54 | 1011.6 |
| 20260505191802 | 65 | 322 | 4.3 | 8.7 | 0.00 | 0.00 | 0.00 | 55 | 1011.6 |
| 20260505190902 | 65 | 338 | 3.5 | 7.8 | 0.00 | 0.00 | 0.00 | 56 | 1011.7 |
| 20260505190003 | 65 | 328 | 4.3 | 8.7 | 0.00 | 0.00 | 0.00 | 55 | 1011.6 |
| 20260505185402 | 67 | 295 | 6.1 | 9.6 | 0.00 | 0.00 | 0.00 | 51 | 1011.3 |
| 20260505184523 | 68 | 276 | 6.1 | 11.3 | 0.00 | 0.00 | 0.00 | 49 | 1011.2 |
| 20260505183602 | 68 | 277 | 6.1 | 12.2 | 0.00 | 0.00 | 0.00 | 48 | 1010.8 |
| 20260505182723 | 69 | 275 | 7.0 | 13.0 | 0.00 | 0.00 | 0.00 | 48 | 1010.7 |
| 20260505181823 | 69 | 273 | 7.0 | 13.0 | 0.00 | 0.00 | 0.00 | 47 | 1010.8 |
| 20260505180923 | 70 | 276 | 6.1 | 9.6 | 0.00 | 0.00 | 0.00 | 46 | 1010.8 |
| 20260505180025 | 70 | 272 | 4.3 | 8.7 | 0.00 | 0.00 | 0.00 | 45 | 1010.4 |
| 20260505175402 | 70 | 284 | 5.2 | 9.6 | 0.00 | 0.00 | 0.00 | 45 | 1010.6 |
| 20260505174502 | 71 | 273 | 5.2 | 9.6 | 0.00 | 0.00 | 0.00 | 44 | 1010.2 |
| 20260505173602 | 71 | 273 | 7.0 | 12.2 | 0.00 | 0.00 | 0.00 | 44 | 1010.0 |
| 20260505172702 | 71 | 264 | 6.1 | 12.2 | 0.00 | 0.00 | 0.00 | 43 | 1010.1 |
| 20260505171802 | 71 | 267 | 6.1 | 11.3 | 0.00 | 0.00 | 0.00 | 42 | 1009.7 |
| 20260505170903 | 71 | 252 | 6.1 | 12.2 | 0.00 | 0.00 | 0.00 | 42 | 1009.8 |
| 20260505170023 | 72 | 269 | 5.2 | 11.3 | 0.00 | 0.00 | 0.00 | 43 | 1009.8 |
| 20260505165402 | 72 | 259 | 6.1 | 11.3 | 0.00 | 0.00 | 0.00 | 43 | 1009.7 |
| 20260505164502 | 72 | 262 | 6.1 | 12.2 | 0.00 | 0.00 | 0.00 | 42 | 1009.6 |
| 20260505163601 | 72 | 242 | 6.1 | 11.3 | 0.00 | 0.00 | 0.00 | 41 | 1009.3 |
| 20260505162702 | 72 | 254 | 5.2 | 8.7 | 0.00 | 0.00 | 0.00 | 40 | 1009.3 |
| 20260505161802 | 72 | 262 | 5.2 | 11.3 | 0.00 | 0.00 | 0.00 | 39 | 1009.1 |
| 20260505160902 | 73 | 253 | 5.2 | 11.3 | 0.00 | 0.00 | 0.00 | 39 | 1009.2 |
| 20260505152723 | 74 | 249 | 7.8 | 14.8 | 0.00 | 0.00 | 0.00 | 37 | 1008.5 |
| 20260505151802 | 75 | 237 | 7.0 | 13.0 | 0.00 | 0.00 | 0.00 | 38 | 1008.5 |
| 20260505150902 | 75 | 243 | 7.8 | 12.2 | 0.00 | 0.00 | 0.00 | 37 | 1008.6 |
| 20260505124502 | 76 | 188 | 2.6 | 7.0 | 0.00 | 0.00 | 0.00 | 44 | 1008.8 |
| 20260505122704 | 77 | 78 | 2.6 | 6.1 | 0.00 | 0.00 | 0.00 | 45 | 1008.9 |
| 20260505121802 | 76 | 80 | 1.7 | 5.2 | 0.00 | 0.00 | 0.00 | 46 | 1009.0 |
| 20260505100002 | 74 | 284 | 4.3 | 7.8 | 0.00 | 0.00 | 0.00 | 50 | 1010.7 |
| 20260505095424 | 74 | 274 | 3.5 | 6.1 | 0.00 | 0.00 | 0.00 | 52 | 1010.7 |
| 20260505094502 | 74 | 288 | 1.7 | 6.1 | 0.00 | 0.00 | 0.00 | 51 | 1010.7 |
| 20260505093602 | 72 | 15 | 1.7 | 7.0 | 0.00 | 0.00 | 0.00 | 52 | 1010.9 |
| 20260505092703 | 73 | 285 | 2.6 | 7.0 | 0.00 | 0.00 | 0.00 | 54 | 1011.1 |
| 20260505091823 | 72 | 319 | 1.7 | 6.1 | 0.00 | 0.00 | 0.00 | 54 | 1011.0 |
| 20260505090923 | 71 | 304 | 4.3 | 7.8 | 0.00 | 0.00 | 0.00 | 59 | 1011.4 |
| 20260505090002 | 71 | 283 | 5.2 | 7.0 | 0.00 | 0.00 | 0.00 | 60 | 1011.6 |
| 20260505084502 | 71 | 268 | 5.2 | 9.6 | 0.00 | 0.00 | 0.00 | 62 | 1011.6 |
| 20260505083602 | 71 | 276 | 5.2 | 9.6 | 0.00 | 0.00 | 0.00 | 62 | 1011.5 |
| 20260505082703 | 70 | 300 | 6.1 | 9.6 | 0.00 | 0.00 | 0.00 | 64 | 1011.9 |
| 20260505081802 | 70 | 304 | 7.0 | 12.2 | 0.00 | 0.00 | 0.00 | 65 | 1011.8 |
| 20260505080903 | 70 | 306 | 5.2 | 12.2 | 0.00 | 0.00 | 0.00 | 65 | 1011.6 |
| 20260505080002 | 70 | 295 | 6.1 | 9.6 | 0.00 | 0.00 | 0.00 | 66 | 1011.8 |
| 20260505075402 | 70 | 288 | 6.1 | 9.6 | 0.00 | 0.00 | 0.00 | 66 | 1011.7 |
| 20260505074502 | 70 | 292 | 5.2 | 7.8 | 0.00 | 0.00 | 0.00 | 67 | 1011.6 |
| 20260505073623 | 69 | 308 | 4.3 | 8.7 | 0.00 | 0.00 | 0.00 | 68 | 1011.7 |
| 20260505072702 | 68 | 318 | 2.6 | 7.8 | 0.00 | 0.00 | 0.00 | 65 | 1012.0 |
| 20260505071803 | 68 | 305 | 4.3 | 7.8 | 0.00 | 0.00 | 0.00 | 69 | 1012.0 |
| 20260505070902 | 68 | 323 | 3.5 | 7.8 | 0.00 | 0.00 | 0.00 | 67 | 1011.9 |
| 20260505070024 | 67 | 330 | 3.5 | 8.7 | 0.00 | 0.00 | 0.00 | 69 | 1012.0 |
| 20260505065402 | 67 | 324 | 4.3 | 8.7 | 0.00 | 0.00 | 0.00 | 70 | 1012.1 |
| 20260505064503 | 67 | 324 | 4.3 | 7.8 | 0.00 | 0.00 | 0.00 | 72 | 1012.1 |
| 20260505063603 | 66 | 311 | 4.3 | 9.6 | 0.00 | 0.00 | 0.00 | 72 | 1012.5 |
| 20260505062702 | 65 | 312 | 5.2 | 9.6 | 0.00 | 0.00 | 0.00 | 72 | 1012.4 |
| 20260505061824 | 64 | 307 | 6.1 | 8.7 | 0.00 | 0.00 | 0.00 | 72 | 1012.2 |
| 20260505060903 | 64 | 309 | 5.2 | 9.6 | 0.00 | 0.00 | 0.00 | 73 | 1012.4 |
| 20260505060003 | 64 | 310 | 5.2 | 8.7 | 0.00 | 0.00 | 0.00 | 73 | 1012.5 |
| 20260505055403 | 63 | 304 | 5.2 | 8.7 | 0.00 | 0.00 | 0.00 | 74 | 1012.5 |
| 20260505054502 | 62 | 300 | 5.2 | 8.7 | 0.00 | 0.00 | 0.00 | 75 | 1012.4 |
| 20260505053603 | 62 | 312 | 5.2 | 9.6 | 0.00 | 0.00 | 0.00 | 76 | 1012.6 |
| 20260505052703 | 61 | 308 | 5.2 | 8.7 | 0.00 | 0.00 | 0.00 | 78 | 1012.5 |
| 20260505051803 | 60 | 308 | 7.0 | 9.6 | 0.00 | 0.00 | 0.00 | 80 | 1012.5 |
| 20260505050902 | 59 | 308 | 6.1 | 9.6 | 0.00 | 0.00 | 0.00 | 80 | 1012.7 |
| 20260505040902 | 58 | 307 | 5.2 | 8.7 | 0.00 | 0.00 | 0.00 | 82 | 1012.7 |
| 20260505040004 | 57 | 308 | 3.5 | 6.1 | 0.00 | 0.00 | 0.00 | 83 | 1012.6 |
| 20260505035402 | 57 | 312 | 3.5 | 6.1 | 0.00 | 0.00 | 0.00 | 83 | 1012.7 |
| 20260505034502 | 56 | 307 | 4.3 | 7.8 | 0.00 | 0.00 | 0.00 | 84 | 1012.7 |
| 20260505033602 | 56 | 308 | 5.2 | 7.8 | 0.00 | 0.00 | 0.00 | 85 | 1012.7 |
| 20260505032702 | 55 | 307 | 4.3 | 7.8 | 0.00 | 0.00 | 0.00 | 85 | 1012.9 |
| 20260505031802 | 56 | 297 | 4.3 | 8.7 | 0.00 | 0.00 | 0.00 | 85 | 1012.5 |
| 20260505030902 | 56 | 308 | 4.3 | 7.0 | 0.00 | 0.00 | 0.00 | 86 | 1012.5 |
| 20260505030024 | 56 | 308 | 4.3 | 8.7 | 0.00 | 0.00 | 0.00 | 84 | 1012.4 |
| 20260505025403 | 57 | 309 | 3.5 | 8.7 | 0.00 | 0.00 | 0.00 | 82 | 1012.4 |
| 20260505024523 | 59 | 351 | 0.0 | 0.9 | 0.00 | 0.00 | 0.00 | 80 | 1011.9 |
| 20260505023602 | 58 | 0 | 0.0 | 0.0 | 0.00 | 0.00 | 0.00 | 81 | 1012.1 |